Home   Weather   Ashland   Past weeks
Flag for USA

Past Weather in Ashland, Nebraska, USA — Yesterday and Last 2 Weeks

Now
71 °F

Sunny.


Feels Like: 76 °F
Forecast: 66 / 46 °F
Wind: 14 mph from North

Location: Millard Airport

Current Time: Apr 8, 2020 at 2:28:49 pm

Latest Report: Apr 8, 2020 at 1:55 pm


Visibility: 10 mi

Pressure: 29.88 "Hg

Humidity: 31%

Dew Point: 38 °F

Location of AshlandLocation

Past Weather in Ashland — Graph

°F

Ashland Temperature Yesterday

Maximum temperature yesterday: 85 °F (at 3:15 pm)
Minimum temperature yesterday: 49 °F (at 6:15 am)
Average temperature yesterday: 65 °F

High & Low Weather Summary for the Past Weeks

 TemperatureHumidityPressure
High85 °F (Apr 7, 3:15 pm)95% (Apr 7, 8:35 am)30.31 "Hg (Apr 7, 8:35 am)
Low26 °F (Apr 3, 7:55 am)14% (Apr 7, 4:55 pm)29.29 "Hg (Mar 28, 2:35 pm)
Average51 °F66%29.90 "Hg
* Reported Mar 24 1:15 pm — Apr 8 1:35 pm, Ashland. Weather by CustomWeather, © 2020

Note: Actual official high and low records may vary slightly from our data, if they occured in-between our weather recording intervals... More about our weather records

Ashland Weather History for the Previous 24 Hours

Scroll right to see more
 ConditionsComfort  
Time TempWeatherWind HumidityBarometerVisibility
1:35 pm
Wed, Apr 8
72 °FSunny.13 mph29%29.86 "Hg10 mi
12:55 pm71 °FSunny.14 mph31%29.85 "Hg10 mi
12:35 pm71 °FSunny.16 mph32%29.85 "Hg10 mi
11:55 am69 °FSunny.12 mph41%29.83 "Hg10 mi
11:35 am69 °FSunny.14 mph44%29.81 "Hg10 mi
11:15 am68 °FSunny.14 mph41%29.80 "Hg10 mi
10:55 am69 °FSunny.13 mph36%29.79 "Hg10 mi
10:35 am68 °FSunny.10 mph33%29.77 "Hg10 mi
10:15 am66 °FSunny.8 mph37%29.76 "Hg10 mi
9:55 am65 °FSunny.7 mph37%29.75 "Hg10 mi
9:35 am65 °FSunny.8 mph36%29.74 "Hg10 mi
8:35 am59 °FSunny.3 mph61%29.73 "Hg10 mi
7:55 am51 °FSunny.No wind70%29.74 "Hg10 mi
7:35 am51 °FSunny.No wind69%29.73 "Hg10 mi
7:15 am50 °FSunny.No wind72%29.73 "Hg10 mi
6:55 am50 °FSunny.No wind72%29.72 "Hg10 mi
6:35 am52 °FClear.No wind69%29.71 "Hg10 mi
6:15 am55 °FClear.No wind58%29.72 "Hg10 mi
5:55 am54 °FClear.3 mph65%29.72 "Hg10 mi
5:35 am53 °FClear.3 mph73%29.73 "Hg10 mi
4:55 am54 °FClear.No wind67%29.73 "Hg10 mi
4:35 am53 °FClear.No wind67%29.74 "Hg10 mi
3:55 am53 °FClear.No wind66%29.73 "Hg10 mi
3:35 am52 °FClear.No wind71%29.73 "Hg10 mi
2:55 am52 °FClear.No wind66%29.74 "Hg10 mi
2:35 am51 °FClear.No wind68%29.75 "Hg10 mi
2:15 am52 °FClear.No wind67%29.75 "Hg10 mi
1:55 am53 °FClear.No wind65%29.75 "Hg10 mi
1:35 am53 °FClear.No wind64%29.75 "Hg10 mi
1:15 am54 °FClear.No wind69%29.75 "Hg10 mi
12:55 am55 °FClear.No wind57%29.75 "Hg10 mi
12:35 am55 °FClear.No wind62%29.75 "Hg10 mi
12:15 am56 °FClear.No wind58%29.75 "Hg10 mi
11:55 pm
Tue, Apr 7
56 °FClear.No wind54%29.75 "Hg10 mi
11:35 pm57 °FClear.No wind54%29.75 "Hg10 mi
11:15 pm58 °FClear.No wind51%29.75 "Hg10 mi
10:55 pm58 °FClear.No wind55%29.74 "Hg10 mi
10:35 pm60 °FClear.No wind49%29.74 "Hg10 mi
10:15 pm60 °FClear.No wind50%29.75 "Hg10 mi
9:55 pm62 °FClear.No wind44%29.75 "Hg10 mi
9:35 pm65 °FClear.No wind39%29.74 "Hg10 mi
9:15 pm66 °FClear.3 mph37%29.74 "Hg10 mi
8:55 pm67 °FClear.No wind34%29.72 "Hg10 mi
8:35 pm70 °FClear.No wind29%29.71 "Hg10 mi
8:15 pm74 °FClear.No wind23%29.70 "Hg10 mi
7:15 pm81 °FSunny.3 mph17%29.68 "Hg10 mi
6:55 pm82 °FSunny.8 mph16%29.68 "Hg10 mi
6:35 pm83 °FSunny.10 mph15%29.68 "Hg10 mi
5:55 pm83 °FSunny.15 mph15%29.68 "Hg10 mi
5:35 pm84 °FSunny.13 mph15%29.67 "Hg10 mi
5:15 pm84 °FSunny.18 mph15%29.67 "Hg10 mi
4:55 pm85 °FSunny.15 mph14%29.66 "Hg10 mi
4:35 pm85 °FSunny.12 mph15%29.66 "Hg10 mi
4:15 pm85 °FSunny.16 mph16%29.66 "Hg10 mi
3:50 pm85 °FSunny.13 mph15%29.67 "Hg10 mi
3:35 pm85 °FSunny.14 mph16%29.67 "Hg10 mi
3:15 pm85 °FSunny.14 mph19%29.67 "Hg10 mi
2:38 pm84 °FSunny.13 mph18%29.68 "Hg10 mi
2:18 pm84 °FSunny.12 mph19%29.69 "Hg10 mi
Weather by CustomWeather, © 2020

See weather overview

Advertising